Temp
77 77 78 76 72 67 66 64 63 61 61 59 60 58 58 57 55 54 55 53 54 53 53 52 52 52 50 50 48 50 49 49
78 77 75 73 68 66 65 62 61 61 60 59 57 55 55 55 54 55 54 53 53 52 51 51 50 50 49 49 48 46 47 48
77 74 73 70 66 65 64 62 61 62 62 62 61 58 57 55 54 53 53 52 52 52 50 50 50 48 48 47 45 43 44 45
75 71 69 68 64 63 64 62 61 62 63 62 60 57 54 52 52 51 51 52 51 50 50 49 48 48 45 45 44 43 40 42
76 70 68 67 65 65 64 63 62 63 61 59 56 55 53 54 52 52 50 51 50 50 49 48 47 47 45 44 46 42 41 37
75 69 68 68 65 64 63 62 62 61 61 59 57 56 55 54 52 50 49 49 49 49 48 47 46 46 45 44 43 42 41 37
75 71 69 67 66 63 62 61 61 60 59 59 57 54 53 51 49 48 49 50 48 47 49 46 46 45 44 43 43 43 40 37
73 68 66 65 63 61 61 61 60 59 58 58 55 53 52 50 49 49 49 49 47 45 46 44 44 44 44 44 43 42 40 37
71 67 66 64 62 61 59 59 58 57 55 55 54 53 53 52 50 49 49 48 45 45 44 44 44 44 43 43 42 40 40 38
70 68 64 62 61 58 57 58 57 56 55 53 52 52 50 49 48 48 46 46 46 44 44 43 43 42 42 42 40 38 39 37
66 65 63 62 61 57 56 58 56 54 52 51 51 50 49 48 47 45 44 43 43 43 42 42 41 41 41 40 38 38 37 35
65 64 63 62 60 57 56 56 53 51 50 50 48 47 45 44 43 43 42 42 42 41 41 40 39 39 38 37 37 36 35 34
64 57 59 58 55 54 53 52 50 49 50 48 44 43 43 42 41 42 42 41 42 41 40 40 39 38 37 36 35 35 33 32
64 59 51 41 50 49 51 49 46 46 47 43 41 41 41 40 40 41 41 40 39 39 38 37 37 37 36 36 35 34 32 32
62 57 53 53 49 41 38 45 42 42 41 40 39 39 38 39 40 41 40 41 40 38 37 37 36 35 36 36 36 34 33 32
61 56 52 51 45 43 42 40 37 37 35 36 35 37 39 40 40 40 41 40 40 41 39 39 36 33 32 31 34 33 33 32
60 57 51 48 44 43 42 40 37 38 34 34 34 35 35 38 39 39 39 38 34 34 36 34 31 33 33 34 34 31 31 31
59 57 51 49 44 44 41 39 38 37 34 33 33 34 34 35 39 36 33 32 32 31 31 30 27 26 32 34 34 29 27 25
59 58 53 51 47 46 43 41 39 36 34 32 32 32 33 32 32 31 31 31 30 30 29 29 27 26 32 33 33 30 25 23
MSLP
1004.07 1005.19 1005.99 1007.49 1008.91 1010.60 1012.27 1013.17 1013.89 1014.35 1015.02 1015.79 1016.49 1016.78 1016.96 1017.50 1018.23 1018.73 1018.87 1019.08 1018.97 1018.98 1019.12 1019.65 1019.65 1019.54 1019.95 1020.14 1020.15 1020.04 1019.62 1019.22
1003.29 1004.80 1006.03 1007.37 1008.89 1010.34 1011.60 1012.86 1013.68 1014.19 1014.76 1015.44 1016.15 1016.60 1017.08 1017.81 1018.37 1018.63 1018.94 1019.04 1019.22 1019.34 1019.57 1019.85 1019.89 1020.09 1020.22 1020.49 1020.58 1020.63 1020.13 1019.92
1002.22 1004.23 1005.67 1007.15 1008.53 1009.77 1011.29 1012.38 1013.39 1013.86 1014.21 1014.76 1015.36 1016.10 1016.84 1017.54 1018.17 1018.64 1018.92 1019.21 1019.46 1019.59 1019.99 1020.07 1020.28 1020.45 1020.60 1020.88 1021.23 1021.28 1020.89 1020.67
1000.80 1002.99 1005.02 1006.82 1008.38 1009.46 1010.71 1011.89 1012.93 1013.32 1013.42 1014.06 1015.04 1015.99 1016.82 1017.51 1018.07 1018.59 1019.10 1019.37 1019.57 1019.98 1020.22 1020.38 1020.61 1020.62 1021.03 1021.36 1021.61 1021.75 1021.65 1021.49
999.89 1001.95 1003.96 1006.06 1008.09 1009.53 1010.63 1011.60 1012.51 1012.73 1012.92 1013.68 1014.62 1015.43 1016.14 1016.82 1017.37 1018.35 1019.10 1019.31 1019.80 1020.26 1020.40 1020.64 1020.90 1020.93 1021.45 1021.64 1021.84 1022.06 1022.09 1022.13
998.49 1000.77 1002.76 1004.78 1006.93 1009.08 1010.52 1011.54 1012.24 1012.40 1012.89 1013.52 1014.24 1014.73 1015.63 1016.41 1017.46 1018.19 1018.90 1019.53 1020.06 1020.40 1020.56 1020.79 1021.02 1021.28 1021.57 1021.88 1022.06 1022.22 1022.27 1022.79
997.05 999.61 1001.71 1003.92 1005.81 1008.10 1010.05 1011.31 1011.98 1012.43 1012.87 1013.34 1013.70 1014.46 1015.51 1016.58 1017.52 1018.11 1018.69 1019.43 1020.16 1020.47 1020.66 1020.91 1021.10 1021.49 1021.84 1021.93 1022.00 1022.17 1022.46 1023.04
996.19 999.02 1001.15 1003.19 1004.88 1006.92 1009.19 1010.75 1011.62 1012.40 1012.73 1013.14 1013.61 1014.38 1015.40 1016.37 1017.12 1017.81 1018.60 1019.41 1019.94 1020.68 1020.96 1021.24 1021.56 1021.61 1021.82 1022.03 1022.16 1022.22 1022.68 1022.80
995.93 998.55 1000.64 1002.67 1004.62 1006.10 1008.34 1010.17 1011.30 1012.21 1012.97 1013.34 1013.84 1014.67 1015.48 1016.40 1016.99 1017.87 1018.60 1019.39 1020.04 1020.70 1021.08 1021.42 1021.80 1021.89 1022.01 1022.00 1022.20 1022.70 1022.65 1022.79
996.58 998.82 1000.90 1002.72 1004.42 1006.22 1008.03 1009.96 1011.41 1012.48 1013.34 1013.89 1014.39 1014.97 1015.68 1016.52 1017.40 1018.24 1019.04 1019.66 1020.46 1021.00 1021.19 1021.71 1022.01 1022.17 1022.19 1022.01 1022.45 1022.85 1022.90 1022.93
997.44 999.32 1001.09 1002.81 1004.32 1006.06 1007.96 1009.64 1011.32 1012.63 1013.76 1014.29 1014.66 1015.27 1016.15 1017.03 1017.89 1018.53 1019.32 1020.10 1020.77 1021.00 1021.43 1021.97 1022.39 1022.33 1022.44 1022.56 1022.73 1023.13 1023.16 1023.13
998.12 999.89 1001.44 1003.17 1004.95 1006.42 1007.82 1009.35 1011.13 1012.66 1013.98 1014.57 1014.91 1015.64 1016.57 1017.48 1018.06 1018.86 1019.50 1020.64 1020.99 1021.22 1021.84 1022.26 1022.57 1022.78 1022.93 1022.93 1022.97 1023.30 1023.43 1023.46
998.89 1000.27 1002.04 1003.76 1005.46 1007.12 1008.46 1009.70 1011.27 1012.96 1014.12 1014.91 1015.48 1016.20 1017.06 1017.98 1018.22 1018.94 1020.12 1020.68 1020.98 1021.67 1021.94 1022.17 1022.77 1023.05 1023.08 1023.12 1023.37 1023.57 1023.73 1023.67
999.88 1001.42 1003.09 1004.74 1006.27 1007.89 1009.24 1010.41 1011.63 1013.07 1014.54 1015.58 1016.06 1016.64 1017.51 1017.89 1018.13 1019.36 1020.20 1020.76 1021.32 1021.80 1022.16 1022.49 1023.04 1023.15 1023.10 1023.31 1023.56 1023.80 1023.99 1023.88
1000.41 1001.98 1003.91 1005.16 1006.85 1008.47 1009.96 1011.24 1012.21 1013.40 1014.74 1015.89 1016.42 1017.11 1017.28 1018.00 1018.76 1019.57 1020.19 1020.66 1021.07 1021.74 1022.37 1022.81 1023.20 1023.13 1023.36 1023.48 1023.64 1023.77 1024.05 1024.31
1000.68 1002.25 1003.93 1005.03 1006.90 1008.69 1010.18 1011.67 1012.73 1013.72 1015.19 1016.19 1016.87 1017.26 1017.47 1018.48 1019.07 1019.64 1020.18 1020.38 1020.96 1021.81 1022.24 1022.56 1023.07 1023.56 1024.06 1023.85 1023.70 1023.99 1024.19 1024.46
1000.67 1002.14 1004.02 1005.59 1007.09 1008.38 1009.41 1011.30 1013.26 1014.29 1014.98 1016.13 1016.92 1017.26 1017.96 1018.68 1019.06 1019.47 1019.97 1020.68 1021.30 1021.81 1022.07 1022.67 1023.29 1024.15 1024.26 1023.94 1024.00 1024.43 1024.63 1024.86
1000.16 1001.70 1003.46 1004.95 1006.91 1008.40 1009.64 1010.76 1012.53 1014.56 1015.55 1016.42 1017.16 1017.73 1018.25 1018.65 1018.88 1019.49 1020.55 1021.22 1021.95 1022.28 1022.63 1023.28 1023.98 1024.52 1024.33 1024.45 1024.60 1025.05 1025.37 1025.64
999.52 1001.10 1003.00 1004.68 1006.55 1008.18 1009.63 1011.12 1012.38 1014.11 1015.41 1016.38 1017.10 1017.79 1018.28 1018.69 1019.11 1019.88 1020.89 1021.75 1022.15 1022.49 1023.03 1023.54 1024.17 1024.46 1024.65 1024.74 1024.96 1025.43 1025.78 1026.17
Wind_Speed
18 22 19 19 18 17 14 12 12 11 8 8 6 4 5 5 5 4 6 4 5 5 5 5 4 4 5 5 6 6 6 8
20 18 15 17 18 18 17 15 13 11 10 9 8 7 5 6 5 6 6 6 5 6 4 4 5 5 5 6 6 8 5 9
20 19 17 17 19 19 17 16 15 12 9 8 8 7 6 6 6 5 6 6 5 7 5 5 5 4 6 6 7 4 4 7
23 23 20 16 18 18 17 17 16 12 12 8 8 8 5 5 6 6 4 6 6 6 6 5 5 4 5 5 5 7 5 5
23 24 23 20 16 15 16 16 16 11 11 10 12 9 8 6 5 8 5 6 7 6 5 5 5 4 5 5 5 3 4 5
26 27 25 22 19 16 13 15 15 10 10 11 9 7 9 7 7 6 9 6 6 6 5 5 5 4 5 5 4 4 4 4
26 27 26 23 20 17 14 15 14 12 9 12 8 13 11 9 7 6 5 5 5 5 5 4 5 5 4 3 3 5 6 4
22 28 25 23 23 21 16 17 15 13 9 10 9 10 10 10 8 6 6 5 4 5 4 5 4 4 4 3 3 5 3 4
21 26 24 24 23 23 19 17 14 13 8 9 10 9 6 7 6 6 4 5 6 6 5 5 4 5 3 3 4 3 4 3
16 22 20 21 20 20 19 16 14 13 10 9 11 8 9 8 8 8 5 7 6 5 5 6 5 4 4 4 5 4 4 4
11 17 19 18 19 20 19 16 16 13 10 10 9 11 11 10 6 9 8 6 6 5 6 6 4 5 5 5 5 4 5 4
10 14 17 18 18 19 18 16 17 14 12 11 11 10 10 8 9 8 9 6 6 6 6 5 5 5 4 4 5 5 5 5
9 9 15 15 17 16 15 15 16 12 11 11 11 12 10 9 9 9 7 6 6 6 5 6 5 4 5 5 6 5 5 6
10 11 11 10 14 14 12 13 14 12 11 11 12 12 11 10 10 8 7 7 6 6 6 6 5 4 5 5 6 5 6 6
12 12 11 14 14 12 9 13 12 12 12 12 11 11 12 10 10 9 8 8 8 7 7 6 5 5 5 4 5 5 6 5
10 14 11 17 17 14 14 13 11 11 8 10 9 10 11 11 10 9 9 7 7 8 9 8 9 7 5 5 6 5 5 6
13 15 16 15 15 16 17 17 12 13 13 12 11 11 9 10 10 8 8 7 8 3 7 9 10 6 8 12 8 6 7 6
11 15 18 17 17 16 16 17 14 13 11 10 10 11 10 10 9 9 8 8 7 7 9 10 8 4 11 10 12 6 5 5
14 13 17 17 18 17 16 15 16 14 13 12 11 11 10 7 11 11 9 8 7 7 7 8 8 5 10 11 11 6 6 6
Wind_Direction
182 194 177 166 154 152 162 161 163 139 137 132 153 122 119 106 98 99 87 83 51 21 71 58 1 35 25 17 359 354 322 353
175 191 168 162 148 156 165 167 157 156 158 158 155 148 130 110 106 107 89 70 47 49 40 52 26 28 38 15 15 347 351 2
175 165 167 167 159 162 166 164 167 173 170 163 160 138 135 127 114 92 86 81 56 77 45 44 34 8 45 20 26 344 351 26
175 167 170 169 164 167 170 165 172 187 172 133 122 102 108 124 140 125 97 90 76 62 58 47 28 34 45 31 28 14 353 13
178 167 167 171 163 167 170 167 176 189 147 142 145 151 157 155 130 120 112 93 77 67 60 53 49 41 48 29 27 14 17 13
178 170 168 167 157 168 172 168 181 159 155 154 168 146 118 114 109 129 116 103 95 84 69 64 57 52 49 60 5 34 58 40
173 168 164 167 158 160 170 170 180 158 181 158 175 133 131 127 134 136 143 133 127 86 89 75 72 47 42 30 14 44 73 67
164 163 169 166 161 158 168 173 172 169 174 152 127 120 125 134 147 134 129 132 117 96 78 62 57 63 38 10 57 45 55 91
158 163 166 163 164 160 162 172 166 165 152 137 122 121 126 129 111 107 99 103 96 98 94 88 66 56 32 327 71 23 26 49
161 156 162 161 160 156 155 168 155 156 154 139 129 132 117 113 101 102 84 97 110 110 98 94 79 66 37 355 80 24 20 26
134 144 156 161 157 150 153 159 155 149 142 140 137 124 114 115 122 111 108 89 95 115 99 90 91 69 43 44 65 32 36 23
144 147 157 156 149 153 156 151 147 146 151 151 133 122 117 112 108 111 104 126 125 110 117 118 96 91 68 69 89 57 45 46
128 113 146 145 147 151 152 140 143 144 151 140 126 119 118 127 118 113 134 134 116 116 123 108 106 106 95 79 70 70 52 51
126 123 128 130 134 142 145 138 135 137 138 137 135 131 138 133 120 130 135 128 128 125 97 92 103 104 89 94 97 81 71 52
145 133 131 138 137 136 125 132 133 136 137 148 140 146 136 133 135 142 147 153 142 124 127 127 120 75 90 83 83 100 98 80
157 154 150 148 144 144 129 126 123 122 130 145 146 143 130 142 144 149 157 143 133 151 157 146 116 86 38 3 78 77 71 82
176 163 156 151 148 149 139 145 144 149 145 147 145 139 144 151 155 147 130 116 71 62 97 84 75 82 77 52 88 61 40 57
179 173 166 159 158 159 152 149 143 148 141 144 144 144 153 156 149 116 105 111 108 91 90 93 94 99 92 85 87 78 76 60
172 167 160 164 161 167 149 150 152 151 153 152 153 155 150 126 118 121 119 123 132 120 123 126 117 107 111 110 106 98 80 63